Falconsat-3
1 30776U 07006E 17151.48335345 .00002297 00000-0 73807-4 0 9995
2 30776 035.4354 172.5822 0003077 189.3602 170.7066 15.32182284565696
CO-65
1 32785U 08021C 17151.63168798 .00000284 00000-0 36691-4 0 9992
2 32785 097.5674 176.6601 0012124 217.7780 142.2588 14.87879798492366
AAUSAT2
1 32788U 08021F 17151.89012775 .00000446 00000-0 47104-4 0 9997
2 32788 097.5599 188.4888 0012037 177.3059 182.8229 14.93852352493149
DO-64
1 32789U 08021G 17151.93339927 .00000882 00000-0 66640-4 0 9994
2 32789 097.5591 210.5075 0013821 150.7622 209.4381 15.04822817494322
CO-66
1 32791U 08021J 17151.72604222 .00000357 00000-0 42278-4 0 9995
2 32791 097.5644 181.0637 0012846 201.4540 158.6142 14.90209427492619
RS-30
1 32953U 08025A 17151.78391171 .00000025 00000-0 11284-3 0 9995
2 32953 082.5043 249.8493 0017828 323.3589 036.6270 12.43076854409382
PRISM
1 33493U 09002B 17151.90665102 .00001605 00000-0 14970-3 0 9993
2 33493 098.1715 033.6533 0016142 130.8022 229.4596 14.95659435453345
NOAA-19
1 33591U 09005A 17151.90226716 .00000107 00000-0 83315-4 0 9995
2 33591 099.0911 118.4970 0013337 321.9905 038.0324 14.12183580428094
TISAT-1
1 36799U 10035E 17151.89665974 .00000558 00000-0 63388-4 0 9992
2 36799 098.0595 274.2955 0012903 026.9749 333.2136 14.90378442373150
JUGNU
1 37839U 11058B 17151.48864692 .00000299 00000-0 17635-4 0 9993
2 37839 019.9599 191.7316 0019075 359.9930 141.8512 14.12583894291225
SRMSAT
1 37841U 11058D 17151.52258653 .00000310 00000-0 25369-4 0 9992
2 37841 019.9713 232.8665 0011678 258.5116 217.5913 14.10575412290928
AO-71
1 37854U 11061E 17151.88727326 .00001525 00000-0 89040-4 0 9992
2 37854 101.7058 017.2264 0167924 123.1700 238.5745 15.04028279304038
HRBE
1 37855U 11061F 17151.88595877 .00001735 00000-0 98353-4 0 9997
2 37855 101.7191 015.0389 0181021 129.6018 232.1334 15.02987871303873
ALMASAT-1
1 38078U 12006B 17151.91619393 .00020640 37701-5 23123-3 0 9990
2 38078 069.4393 176.0976 0314111 314.4799 043.1046 15.21544098282319
HORYU-2
1 38340U 12025D 17151.94570857 .00000273 00000-0 48429-4 0 9991
2 38340 098.3761 155.2953 0011382 350.7675 009.3322 14.75330726260489
RS-40
1 38735U 12041C 17151.94564185 .00000010 00000-0 36264-5 0 9998
2 38735 082.4739 334.3148 0017542 065.3216 294.9688 12.42574444219655
BEESAT-3
1 39134U 13015E 17151.81033389 .00001507 00000-0 83134-4 0 9996
2 39134 064.8679 279.3199 0034965 272.5793 087.1331 15.17754673226610
BEESAT-2
1 39136U 13015G 17151.87201749 .00001140 00000-0 70419-4 0 9996
2 39136 064.8700 289.5822 0031865 285.2963 074.4641 15.15046757226415
ZACUBE-1
1 39417U 13066B 17151.87414621 .00000245 00000-0 37680-4 0 9997
2 39417 097.6308 194.9066 0058352 324.6136 035.1210 14.80699530190368
TRITON-1
1 39427U 13066M 17151.96201616 .00000264 00000-0 50142-4 0 9995
2 39427 097.6379 168.4054 0115436 041.3947 319.5934 14.67449407188472
GOMX-1
1 39430U 13066Q 17151.91705532 .00000276 00000-0 58574-4 0 9990
2 39430 097.6645 152.1944 0153552 094.3920 267.4842 14.58859123187377
LO-74
1 39440U 13066AA 17151.62954885 .00000274 00000-0 45495-4 0 9992
2 39440 097.6299 183.9808 0080591 355.2841 004.7601 14.75441418188455
AO-73
1 39444U 13066AE 17151.65923002 .00000328 00000-0 47446-4 0 9994
2 39444 097.6324 195.7344 0057452 322.1160 037.6016 14.81430054188570
SPROUT
1 39770U 14029E 17151.87084785 .00001179 00000-0 14036-3 0 9999
2 39770 097.8715 251.4013 0009861 029.7293 330.4477 14.86208624163714
DUCHIFAT-1
1 40021U 14033M 17151.30686541 .00000657 00000-0 74184-4 0 9992
2 40021 097.9196 064.4470 0013311 003.7984 356.3332 14.89870411160088
NANOSATCBR1
1 40024U 14033Q 17151.90603579 .00000505 00000-0 59390-4 0 9995
2 40024 097.9156 063.9603 0012537 003.1614 356.9680 14.89199057159600
EO-79
1 40025U 14033R 17151.80963508 .00000375 00000-0 46518-4 0 9999
2 40025 097.9139 062.9299 0012798 006.2434 353.8940 14.88406158159545
DTUSAT-2
1 40030U 14033W 17151.74346758 .00000365 00000-0 45851-4 0 9998
2 40030 097.9104 061.9941 0012105 001.3130 358.8116 14.88029937160006
EO-80
1 40032U 14033Y 17151.78496567 .00000360 00000-0 45374-4 0 9993
2 40032 097.9112 062.0421 0012054 001.5042 358.6208 14.87964366159482
ANTELSAT
1 40034U 14033AA 17151.71665154 .00000274 00000-0 48589-4 0 9993
2 40034 097.8616 036.1570 0058905 347.4076 012.5658 14.73687418157964
VELOX-1
1 40057U 14034E 17151.83713196 .00000467 00000-0 73613-4 0 9992
2 40057 098.1886 251.8087 0012535 109.0591 251.1977 14.77109198157349
DAURIA DX 1
1 40071U 14037C 17151.84895110 .00000207 00000-0 34079-4 0 9994
2 40071 098.3360 262.2676 0009716 103.0659 257.1640 14.81011271156554
UKUBE-1
1 40074U 14037F 17151.83530820 .00000516 00000-0 69904-4 0 9998
2 40074 098.3448 266.0187 0005827 099.5169 260.6705 14.83487196156755
HODOYOSHI-1
1 40299U 14070B 17151.89233006 .00001418 00000-0 64610-4 0 9997
2 40299 097.4035 234.8799 0014071 143.5395 327.2536 15.22229678142468
CHUBUSAT-1
1 40300U 14070C 17151.84721162 .00001528 00000-0 72007-4 0 9991
2 40300 097.3959 232.0403 0021022 154.6130 343.7190 15.20825969142306
QSAT-EOS
1 40301U 14070D 17151.90540119 .00003623 00000-0 15485-3 0 9994
2 40301 097.3894 232.1071 0028371 151.6291 297.9653 15.23125862142353
FIREBIRD FU3
1 40377U 15003B 17151.76631491 .00002197 00000-0 96589-4 0 9992
2 40377 099.1229 332.4506 0137350 057.0811 304.3542 15.15300674128519
FIREBIRD FU4
1 40378U 15003C 17151.75877909 .00002303 00000-0 10090-3 0 9999
2 40378 099.1230 332.4778 0137529 057.0105 304.4254 15.15321830128526
GRIFEX
1 40379U 15003D 17151.78317905 .00002014 00000-0 93755-4 0 9997
2 40379 099.1246 330.3562 0143371 064.2275 297.3666 15.12895343128408
NO-84
1 40654U 15025D 17152.40303958 .00011078 00000-0 20981-3 0 04614
2 40654 054.9958 307.1469 0180058 225.0839 133.5221 15.33230565077477
NO-83
1 40655U 15025E 17152.33271907 .00018377 00000-0 28356-3 0 05136
2 40655 054.9826 284.0968 0147990 238.3911 120.2272 15.42679082077778
DEORBITSAIL
1 40719U 15032E 17151.71659201 .00000495 00000-0 79201-4 0 9999
2 40719 097.9823 045.6790 0015905 191.5780 168.5066 14.76039973101893
NUDT-PHONESAT
1 40900U 15049B 17151.90457558 .00002427 00000-0 11802-3 0 9990
2 40900 097.4430 160.0598 0012228 284.5820 075.4058 15.19314904093980
XW-2A
1 40903U 15049E 17151.79817644 .00002135 00000-0 57987-4 0 9997
2 40903 097.4222 177.3002 0013865 330.9217 029.1255 15.38664173095127
XW-2C
1 40906U 15049H 17151.92161797 .00000870 00000-0 50746-4 0 9996
2 40906 097.4546 157.7378 0013550 271.4292 088.5387 15.14504611093778
XW-2D
1 40907U 15049J 17151.90611746 .00000930 00000-0 53855-4 0 9990
2 40907 097.4515 157.4892 0012895 269.4404 090.5351 15.14605799093779
LILACSAT-2
1 40908U 15049K 17151.95300295 .00000507 00000-0 32232-4 0 9996
2 40908 097.4618 157.3267 0014497 266.9498 093.0075 15.13099218093711
XW-2F
1 40910U 15049M 17151.91773253 .00001379 00000-0 76247-4 0 9995
2 40910 097.4536 158.1582 0013702 266.8522 093.1143 15.15470998093815
XW-2B
1 40911U 15049N 17151.91180936 .00000902 00000-0 52379-4 0 9997
2 40911 097.4559 157.8626 0012802 269.7753 090.2012 15.14568615093674
DCBB
1 40912U 15049P 17151.92759850 .00002273 00000-0 11629-3 0 9991
2 40912 097.4501 159.9592 0014084 258.4230 163.7505 15.17568530093825
TW-1C
1 40926U 15051B 17151.85595196 .00011728 00000-0 27205-3 0 9994
2 40926 097.2302 191.5449 0010156 222.5914 255.4486 15.42493967094408
